Showing default

PREFIRE-2, 59881

Orbit data source: Space-Track

PREFIRE-2, 59881 is a payload satellite owned by JPL (US) in SSO that was launched on Sat, 25 May 2024 UTC via an ELECTRON launch vehicle from the Rocket Lab Launch Complex (RLLC). Payload-class satellites include a variety of spacecraft equipped with specific instruments for various scientific and technological missions. These include communications satellites like Starlink; space stations such as the ISS; scientific satellites like the Hubble; Earth observation satellites from companies like Planet Labs, Umbra, and HawkEye 360; GPS; miniature CubeSats for education and research; and military/defense satellites.

Loading next visibility...
Identifier
59881, 2024-099A
Orbit
SSO
Country
Flag of USUS
Related business
Manufacturer
JPL
Mission
Operational Civil Earth Obs Sci
Bus & Motor
CUBESAT 6U, Unknown motor
Mass
~10 kg wet, ~10 kg dry
Launch date (UTC)
2024-05-25 (2 years ago)
Launch vehicle
ELECTRON
Launch site
Rocket Lab Launch Complex (RLLC)
Object type
Payload
Rocket body
Debris
Shape & HBR
Box + 2 Pan, 6.3 m
Radar Cross Section
0.789 m², Medium (>0.1 m² and < 1m²)

Expand to show TLE details & history
Last TLE update: 2 days ago

TLE from 2 days ago
0 PREFIRE-2
1 59881U 24099A   26171.15561843  .00003068  00000-0  14091-3 0  9990
2 59881  97.4081  27.3009 0011662 187.5673 172.5389 15.21088554114589
Epoch: 2026-06-20T03:44Z
TLE epoch observation values (Epoch: 2026-06-20T03:44:05.432Z)
Latitude
0.00002°
Longitude
62.90397°
Altitude
513.606 km
Speed
7.603 km/s
True Right ascension
01h 49m 12s
True Declination
0° 00' 00"
Sunlit
Object was in daylight at epoch
Visualization orbit readout
Latitude
Unknown
Longitude
Unknown
Altitude
Unknown
Speed
Unknown
Apparent Right ascension
Unknown
Apparent Declination
Unknown
Sunlit
N/A
Visualization observer readout
Local Sidereal Time
23:21:01
Azimuth
Unknown
Elevation
Unknown
Doppler factor
Unknown
Orbital elements
Apogee altitude
507.541 km
Perigee altitude
491.5 km
Semi-major axis
6,877.657 km
Eccentricity
0.00117
Inclination
97.4081°
RAAN
27.3009°
Arg. of periapsis
187.5673°
True anomaly
172.55623°
Mean anomaly
172.5389°
Eccentric anomaly
172.54757°
Mean motion
3.80524 °/min
Orbital period
94.61 mins
BSTAR
0.00014091
Loading maneuver chart data...
Computing Atmospheric mass density...
Loading historical data...
Loading historical data...
Loading historical data...
Loading historical data...
Loading historical data...
Loading historical data...
Loading historical data...
Other satellites on launch #99 in the year 2024 (2024-05-25 UTC)

Documentation

Showing up to 5 results
|